Orbital Elements at Epoch 2459000.5 (2020-May-31.0) TDB
Reference: JPL 17 (heliocentric ecliptic J2000)
Element | Value | Uncertainty (1-sigma) | Units |
e | .08405300619896784 | 4.789e-08 | |
a | 3.027172590527511 | 2.3351e-08 | au |
q | 2.772729634010556 | 1.4544e-07 | au |
i | 9.920455067753103 | 5.0369e-06 | deg |
node | 178.1991006047912 | 2.9799e-05 | deg |
peri | 253.351441255819 | 4.6855e-05 | deg |
M | 181.7077175933059 | 4.0518e-05 | deg |
tp | 2459953.261598476897 (2023-Jan-08.76159848) | 0.00022392 | TDB |
period | 1923.774662715323 5.27 | 2.2259e-05 6.094e-08 | d yr |
n | .1871321038670277 | 2.1652e-09 | deg/d |
Q | 3.281615547044466 | 2.5314e-08 | au |
|
| | Orbit Determination Parameters
Additional Information
|